Probability
0 0 0 0 0 0 0 0 0 0 0 0 0 0 0 0 0 0 0 0 0 0 0 0 0 0 0 0 0 0 0 0 0 0 0 0 0 0 0 0 0 0 0 0 0 0 0 0 0
0 0 0 0 0 0 0 0 0 0 0 0 0 0 0 0 0 0 0 0 0 0 0 0 0 0 0 0 0 0 0 0 0 0 0 0 0 0 0 0 0 0 0 0 0 0 0 0 0
0 0 0 0 0 0 0 0 0 0 0 0 0 0 0 0 0 0 0 0 0 0 0 0 0 0 0 0 0 0 0 0 0 0 0 0 0 0 0 0 0 0 0 0 0 0 0 0 0
0 0 0 0 0 0 0 0 0 0 0 0 0 0 0 0 0 0 0 0 0 0 0 0 0 0 0 0 0 0 0 0 0 0 0 0 0 0 0 0 0 0 0 0 0 0 0 0 0
0 0 0 0 0 0 0 0 0 0 0 0 0 0 0 0 0 0 0 0 0 0 0 0 0 0 0 0 0 0 0 0 0 0 0 0 0 0 0 0 0 0 0 0 0 0 0 0 0
0 0 0 0 0 0 0 0 0 0 0 0 0 0 0 0 0 0 0 0 0 0 0 0 0 0 0 0 0 0 0 0 0 0 0 0 0 0 0 0 0 0 0 0 0 0 0 0 0
0 0 0 0 0 0 0 0 0 0 0 0 0 0 0 0 0 0 0 0 0 0 0 0 0 0 0 0 0 0 0 0 0 0 0 0 0 0 0 0 0 0 0 0 0 0 0 0 0
0 0 0 0 0 0 0 0 0 0 0 0 0 0 0 0 0 0 0 0 0 0 0 0 0 0 0 0 0 0 0 0 0 0 0 0 0 0 0 0 0 0 0 0 0 0 0 0 0
0 0 0 0 0 0 0 0 0 0 0 0 0 0 0 0 0 0 0 0 0 0 0 0 0 0 0 0 0 0 0 0 0 0 0 0 0 0 0 0 0 0 0 0 0 0 0 0 0
0 0 0 0 0 0 0 0 0 0 0 0 0 0 0 0 0 0 0 0 0 0 0 0 0 0 0 0 0 1 0 0 0 0 0 0 0 0 0 0 0 0 0 0 0 0 0 0 0
0 0 0 0 0 0 0 0 0 0 0 0 0 0 0 0 0 0 0 0 0 0 0 0 0 0 0 0 0 0 0 0 0 0 0 0 0 0 0 0 0 0 0 0 0 0 0 0 0
0 0 0 0 0 0 0 0 0 0 0 0 0 0 0 0 0 0 0 0 0 0 0 0 0 0 0 0 0 0 0 0 0 0 0 0 0 0 0 0 0 0 0 0 0 0 0 0 0
0 0 0 0 0 0 0 0 0 0 0 0 0 0 0 0 0 0 0 0 0 0 0 0 0 0 0 0 0 0 0 0 0 0 0 0 0 0 0 0 0 0 0 0 0 0 0 0 0
0 0 0 0 0 0 0 0 0 0 0 0 0 0 0 0 0 0 0 0 0 0 0 0 0 0 0 0 0 0 0 0 0 0 0 0 0 0 0 0 0 0 0 0 0 0 0 0 0
0 0 0 0 0 0 0 0 0 0 0 0 0 0 0 0 0 0 0 0 0 0 0 0 0 0 0 0 0 0 0 0 0 0 0 0 0 0 0 0 0 0 0 0 0 0 0 0 0
0 0 0 0 0 0 0 0 0 0 0 0 0 0 0 0 0 0 0 0 0 0 0 0 0 0 0 0 0 0 0 0 0 0 0 0 0 0 0 0 0 0 0 0 0 0 0 0 0
0 0 0 0 0 0 0 0 0 0 0 0 0 0 0 0 0 0 0 0 0 0 0 0 0 0 0 0 0 0 0 0 0 0 0 0 0 0 0 0 0 0 0 0 0 0 0 0 0
0 0 0 0 0 0 0 0 0 0 0 0 0 0 0 0 0 0 0 0 0 0 0 0 0 0 0 0 0 0 0 0 0 0 0 0 0 0 0 0 0 0 0 0 0 0 0 0 0
0 0 0 0 0 0 0 0 0 0 0 0 0 0 0 0 0 0 0 0 0 0 0 0 0 0 0 0 0 0 0 0 0 0 0 0 0 0 0 0 0 0 0 0 0 0 0 0 0
0 0 0 0 0 0 0 0 0 0 0 0 0 0 0 0 0 0 0 0 0 0 0 0 0 0 0 0 0 0 0 0 0 0 0 0 0 0 0 0 0 0 0 0 0 0 0 0 0
0 0 0 0 0 0 0 0 0 0 0 0 0 0 0 0 0 0 0 0 0 0 0 0 0 0 0 0 0 0 0 0 0 0 0 0 0 0 0 0 0 0 0 0 0 0 0 0 0
0 0 0 0 0 0 0 0 0 0 0 0 0 0 0 0 0 0 0 0 0 0 0 0 0 0 0 0 0 0 0 0 0 0 0 0 0 0 0 0 0 0 0 0 0 0 0 0 0
0 0 0 0 0 0 0 0 0 0 0 0 0 0 0 0 0 0 0 0 0 0 0 0 0 0 0 0 0 0 0 0 0 0 0 0 0 0 0 0 0 0 0 0 0 0 0 0 0
0 0 0 0 0 0 0 0 0 0 0 0 0 0 0 0 0 0 0 0 0 0 0 0 0 0 0 0 0 0 0 0 0 0 0 0 0 0 0 0 0 0 0 0 0 0 0 0 0
0 0 0 0 0 0 0 0 0 0 0 0 0 0 0 0 0 0 0 0 0 0 0 0 0 0 0 0 0 0 0 0 0 0 0 0 0 0 0 0 0 0 0 0 0 0 0 0 0
0 0 0 0 0 0 0 0 0 0 0 0 0 0 0 0 0 0 0 0 0 0 0 0 0 0 0 0 0 0 0 0 0 0 0 0 0 0 0 0 0 0 0 0 0 0 0 0 0
0 0 0 0 0 0 0 0 0 0 0 0 0 0 0 0 0 0 0 0 0 0 0 0 0 0 0 0 0 0 0 0 0 0 0 0 0 0 0 0 0 0 0 0 0 0 0 0 0
0 0 0 0 0 0 0 0 0 0 0 0 0 0 0 0 0 0 0 0 0 0 0 0 0 0 0 0 0 0 0 0 0 0 0 0 0 0 0 0 0 0 0 0 0 0 0 0 0
0 0 0 0 0 0 0 0 0 0 0 0 0 0 0 0 0 0 0 0 0 0 0 0 0 0 0 0 0 0 0 0 0 0 0 0 0 0 0 0 0 0 0 0 0 0 0 0 0
0 0 0 0 0 0 0 0 0 0 0 0 0 0 0 0 0 0 0 0 0 0 0 0 0 0 0 0 0 0 0 0 0 0 0 0 0 0 0 0 0 0 0 0 0 0 0 0 0
Wind_Speed
7 4 2 5 7 6 1 3 2 1 1 1 1 1 2 2 2 2 1 6 7 10 12 14 14 14 14 14 13 13 13 13 12 12 11 10 9 9 10 10 10 10 9 9 8 7 7 7 7
3 3 5 6 7 4 2 2 2 2 3 2 0 0 0 2 2 3 2 6 9 12 11 12 14 15 15 14 14 13 13 13 13 12 11 11 11 10 10 9 9 9 8 7 6 6 6 6 6
4 3 5 5 4 5 3 3 3 2 2 2 0 0 1 2 3 4 5 7 9 10 10 11 14 15 15 15 14 14 13 13 12 12 12 12 11 10 9 8 8 7 7 6 5 5 5 5 5
4 5 6 5 0 4 5 5 3 1 1 1 1 2 2 1 2 4 4 8 10 9 9 11 15 15 15 15 15 14 14 13 12 12 12 12 11 10 9 8 7 6 6 5 5 5 4 4 4
5 5 6 3 3 3 3 4 2 2 2 2 1 0 3 3 3 1 4 7 10 9 8 10 15 15 15 15 15 14 13 13 12 12 12 12 11 10 8 8 7 6 5 5 5 4 4 3 4
5 5 5 1 4 3 2 2 3 2 2 2 1 1 2 1 0 1 2 5 7 9 8 9 14 14 14 14 14 14 13 12 11 12 12 12 12 10 9 8 7 7 6 6 5 4 4 3 4
5 4 2 2 3 2 2 1 4 2 1 1 3 1 2 3 3 3 3 4 5 7 8 8 10 11 13 14 13 13 12 12 11 12 12 12 11 10 9 8 8 8 7 7 6 6 4 4 4
5 4 1 2 2 3 4 3 1 0 2 2 3 2 3 4 3 3 3 3 3 4 6 8 9 9 9 10 13 13 13 12 11 12 12 12 11 10 9 8 8 9 8 8 8 7 5 4 4
5 5 1 1 1 3 5 5 5 4 2 3 2 2 2 3 5 3 2 2 3 4 5 7 9 9 8 8 10 11 12 12 12 11 13 11 7 7 6 8 9 9 9 9 9 8 6 5 3
5 3 6 2 2 2 2 2 4 5 6 5 6 4 1 3 4 5 6 7 7 7 7 7 9 9 8 7 6 6 6 6 7 6 8 6 5 5 6 9 10 9 9 11 11 9 7 4 1
4 6 4 3 2 2 4 4 2 2 6 7 7 6 1 3 5 7 8 8 9 8 6 8 9 9 9 7 6 5 4 4 5 7 7 6 5 4 4 3 4 5 7 5 7 6 3 2 2
4 5 5 4 3 3 3 4 4 3 10 8 6 6 4 4 5 6 7 7 6 6 8 8 9 9 10 8 6 6 5 5 5 6 8 6 4 4 4 3 3 3 3 4 3 3 4 3 3
3 4 4 5 7 4 4 4 4 9 13 9 7 5 4 4 5 5 5 5 6 5 7 7 8 9 9 8 6 6 6 6 6 5 7 7 6 5 4 4 3 4 3 4 4 4 4 4 3
2 2 5 7 8 4 5 5 2 11 6 6 5 6 8 9 10 10 12 11 10 8 7 5 6 8 8 7 7 6 6 5 5 5 6 7 5 5 5 5 4 4 4 4 4 5 4 3 3
1 4 8 7 4 3 2 4 6 10 6 6 4 6 11 11 13 12 11 10 10 11 10 7 4 4 6 7 6 4 4 5 5 5 6 7 6 6 6 5 5 4 4 4 3 3 2 2 2
2 2 5 6 2 0 5 6 9 7 5 6 3 6 9 11 11 11 12 11 12 12 12 12 8 2 2 3 3 3 3 4 4 4 5 7 7 7 6 5 5 5 4 4 4 3 2 2 2
1 2 5 7 2 1 3 7 9 7 5 6 3 6 8 10 13 12 12 12 12 12 13 14 13 9 4 2 3 3 2 2 2 2 3 4 6 7 6 5 5 6 5 4 4 3 3 3 2
6 5 5 5 4 1 4 8 11 10 7 4 3 7 9 12 11 11 11 12 12 12 14 15 15 14 8 5 5 4 5 3 3 1 1 3 3 5 5 4 5 6 5 4 4 4 3 2 2
4 4 6 7 5 3 6 8 11 10 5 2 5 8 9 10 7 9 10 11 13 16 17 17 17 16 11 6 4 4 4 4 5 5 4 2 1 2 3 2 4 5 5 6 6 4 4 2 3
4 5 7 7 4 3 6 8 8 6 4 6 8 9 8 8 8 11 12 13 15 15 15 16 17 16 14 8 4 3 3 4 5 6 8 8 5 4 2 1 1 3 3 4 5 4 3 3 4
6 7 6 6 5 5 4 7 5 2 7 10 10 9 7 8 8 8 11 13 13 15 15 14 15 16 15 13 8 6 6 6 8 9 8 10 9 8 6 4 2 0 2 3 5 5 6 5 4
6 6 6 3 1 4 2 5 7 2 4 7 7 6 6 6 6 8 9 11 13 11 10 13 14 16 15 13 12 13 10 8 7 6 7 9 11 10 9 7 5 2 1 2 3 4 4 4 4
7 1 2 2 2 3 3 4 9 1 3 4 4 5 5 5 5 7 8 8 9 9 10 10 13 15 14 14 14 12 11 7 6 7 11 10 10 11 12 9 7 5 3 3 3 3 4 4 5
3 4 5 5 4 3 5 6 8 3 4 7 6 5 4 4 5 5 6 7 8 8 9 10 12 13 12 13 13 13 12 11 11 11 10 8 7 8 12 11 8 7 5 4 4 4 4 5 6
4 5 3 3 1 7 2 4 8 3 1 9 11 7 5 4 4 4 5 7 7 8 8 9 10 11 10 11 12 11 10 10 11 9 8 8 7 7 11 10 9 8 7 6 5 4 4 5 6
5 8 7 6 6 5 5 7 4 4 4 8 8 7 5 4 4 4 4 5 6 6 7 8 9 9 9 9 9 8 8 6 6 7 6 6 5 5 8 9 9 9 9 8 6 4 4 4 5
6 5 6 6 1 3 7 6 1 3 4 5 6 6 6 6 5 5 4 5 5 5 5 6 6 6 7 7 6 7 7 7 6 6 6 5 5 6 8 8 9 9 9 9 8 5 6 5 5
3 7 5 5 4 6 7 6 6 8 8 7 7 7 7 6 6 5 4 4 4 3 3 4 4 4 4 5 5 4 5 5 4 5 6 6 6 6 8 9 9 9 9 8 8 7 7 7 6
5 4 5 5 6 7 6 9 4 9 12 12 11 9 9 8 7 6 5 4 4 3 3 2 2 1 2 2 3 3 4 4 4 4 5 5 6 7 7 8 8 9 8 8 8 8 9 9 8
7 8 9 7 7 6 5 9 1 5 8 10 10 10 9 8 7 6 6 5 4 3 3 2 2 2 2 1 1 2 3 4 4 5 5 5 6 7 7 8 8 9 9 8 8 9 9 9 10
Wind_Direction
325 329 68 54 54 49 1 285 178 96 163 213 198 165 167 205 192 230 253 155 154 154 168 170 171 169 165 160 157 155 154 153 150 146 143 139 133 125 120 114 109 105 99 93 87 81 79 76 73
336 360 52 56 77 75 287 268 162 195 203 186 246 203 129 240 220 170 175 177 158 158 166 171 171 171 168 165 163 162 162 161 159 157 154 150 144 137 129 121 114 109 104 101 98 91 83 74 68
333 46 74 69 102 163 190 223 212 263 230 154 121 244 241 209 205 196 212 159 148 158 166 171 171 173 173 171 169 169 169 170 169 167 163 157 150 143 136 129 125 122 120 121 117 105 89 74 61
46 42 54 68 76 220 188 201 205 93 5 278 136 339 296 328 218 203 167 142 146 160 166 170 173 176 177 176 176 176 176 177 177 175 170 163 155 149 144 141 137 137 138 139 131 115 96 79 62
57 68 56 30 282 256 201 189 140 66 328 276 183 267 294 2 15 101 148 146 152 162 169 172 175 178 180 181 182 182 183 184 183 181 176 168 161 158 156 156 156 156 156 153 141 124 106 90 72
51 62 78 329 289 278 235 187 111 79 352 325 203 273 306 348 64 208 187 159 158 163 170 174 179 180 182 184 186 186 187 188 189 187 179 172 166 167 168 170 172 174 171 163 152 138 121 101 85
89 86 145 244 284 293 252 194 130 135 340 256 188 251 297 260 224 203 191 168 164 165 169 177 184 185 185 186 188 189 190 191 193 189 180 170 167 169 171 177 182 184 181 173 160 150 137 114 92
112 91 18 311 313 326 331 335 32 201 242 240 165 179 261 237 181 163 176 174 179 182 179 182 185 188 189 191 192 191 192 194 195 190 177 167 167 169 171 174 183 190 189 178 167 161 150 127 105
80 76 227 251 23 322 336 347 328 324 355 328 291 237 299 122 130 139 163 228 225 213 202 189 189 191 190 191 196 196 196 198 196 188 174 166 165 164 168 175 184 190 187 178 173 169 154 132 109
83 145 226 215 187 258 296 287 297 343 331 302 302 304 81 133 163 187 205 219 223 221 212 197 194 194 192 195 192 195 196 198 192 177 172 166 161 165 169 183 187 190 182 178 178 172 153 129 92
151 194 239 256 221 242 288 293 313 343 292 259 260 281 257 212 222 227 235 233 230 226 216 203 198 195 193 197 192 193 192 189 186 178 172 165 162 165 168 173 189 190 178 172 172 157 145 151 161
192 232 233 274 307 296 273 290 317 255 249 256 261 281 294 274 260 254 256 262 263 249 238 220 202 195 196 195 195 193 195 195 193 186 176 170 170 170 170 178 183 180 168 163 153 151 165 180 193
225 262 290 283 288 269 260 259 275 269 266 291 299 320 339 349 339 336 331 331 322 292 271 246 215 204 196 192 193 192 196 198 194 185 184 180 177 175 173 181 183 183 172 169 166 167 174 184 189
246 270 289 278 280 272 250 268 228 268 288 330 358 26 33 32 23 19 12 4 353 337 316 283 234 216 198 193 193 191 189 185 184 188 188 185 180 175 173 176 184 190 185 178 174 178 179 188 190
314 330 317 289 275 271 163 294 238 252 312 324 3 55 57 44 35 26 9 2 352 346 343 337 287 224 203 198 192 180 176 176 184 188 188 188 184 179 176 176 185 190 180 171 167 176 171 188 199
6 352 298 292 302 182 143 254 270 274 290 298 2 67 64 48 34 22 13 8 3 2 2 2 2 359 211 194 178 160 159 168 180 182 186 188 186 180 176 179 186 177 168 166 169 171 186 214 218
340 244 247 289 281 159 180 247 274 293 296 296 21 75 70 51 34 21 13 11 11 12 13 15 16 17 22 61 81 88 96 123 153 164 177 185 183 180 178 182 178 169 170 173 172 166 170 200 229
225 218 235 256 277 251 248 254 275 287 284 286 69 82 72 56 35 20 15 16 19 22 26 25 24 21 22 41 53 53 52 43 46 69 160 176 176 176 174 173 170 166 168 174 176 169 167 167 174
184 205 247 260 271 279 262 268 276 287 308 338 86 90 78 63 42 29 22 22 29 31 31 29 29 22 24 26 30 38 37 26 28 26 28 41 100 149 160 162 166 172 184 189 183 160 172 168 132
228 248 262 278 285 258 270 277 281 328 21 51 89 88 79 65 43 34 31 31 34 35 32 33 31 28 27 24 21 36 43 36 29 28 29 26 29 39 60 112 167 185 189 184 179 167 163 178 164
222 219 231 251 319 329 320 304 294 55 70 63 67 73 71 69 54 38 37 36 36 36 32 36 36 35 31 28 31 31 32 29 23 18 18 17 22 25 27 29 33 221 207 208 203 193 184 197 204
244 229 212 226 259 290 350 291 282 229 84 70 68 64 63 57 54 51 46 44 40 34 33 40 41 41 37 37 43 49 48 41 21 12 17 17 21 21 19 17 17 9 320 268 236 217 214 201 211
216 183 170 193 196 274 284 243 276 251 155 127 106 92 80 66 61 56 50 49 43 34 37 39 44 44 40 44 45 49 47 38 25 26 25 20 18 21 17 12 9 2 343 305 282 251 234 225 222
146 70 43 53 83 260 225 197 270 246 205 154 145 128 110 90 71 62 53 53 49 40 41 41 48 45 40 44 46 48 45 38 35 28 23 17 11 13 12 8 7 360 350 326 296 271 253 246 246
113 101 11 328 327 247 263 220 248 327 319 154 153 147 134 117 98 79 65 58 53 46 42 42 48 46 39 44 46 43 42 40 39 29 22 18 12 6 1 2 0 358 350 338 323 299 277 259 252
176 154 172 210 232 275 303 244 274 16 60 108 129 138 142 141 131 114 100 86 72 60 50 46 47 44 37 41 43 41 40 39 35 29 25 19 9 357 355 358 358 357 354 350 341 320 297 280 266
155 187 167 141 134 272 264 274 340 96 98 127 146 157 169 172 163 147 126 106 93 79 66 58 53 45 37 35 37 38 35 35 27 18 16 10 2 354 354 355 355 353 352 351 347 334 318 305 282
157 147 117 144 193 245 267 251 226 184 193 188 189 190 193 189 177 160 142 126 116 108 93 74 62 53 38 32 29 28 24 23 15 9 5 356 349 349 348 348 345 343 343 344 344 334 326 319 304
150 161 162 166 174 184 248 260 214 187 188 192 199 200 197 192 182 169 155 148 141 134 127 119 102 70 35 18 11 8 359 356 355 351 342 337 335 337 337 334 331 330 329 331 331 325 323 319 312
192 188 169 184 220 205 219 261 228 189 181 182 194 202 200 189 178 166 160 158 157 162 175 188 201 215 237 257 296 315 320 324 325 318 314 319 320 320 319 320 320 319 319 317 315 312 312 308 306